Flag for Germany Weather past 2 weeks in Greifswald, Mecklenburg-Western Pomerania, Germany

Now
60 °F

Overcast.


Feels Like: 60 °F
Forecast: 51 / 70 °F
Wind: 7 mph from Southwest

Location: Greifswald

Current Time: Aug 20, 2014 at 1:22:33 PM

Latest Report: Aug 20, 2014 at 1:00 PM


Visibility: 19 mi

Pressure: 29.84 "Hg

Humidity: 65%

Dew point: 49 °F

Location of GreifswaldLocation

Historic Weather in Greifswald — Graph

°F

Greifswald temperature yesterday

Maximum temperature yesterday: 65 °F (at 6:00 PM)
Minimum temperature yesterday: 53 °F (at 6:00 AM)
Average temperature yesterday: 59 °F

Past Weeks' High & Low Weather Summary

 TemperatureHumidityPressure
High80 °F (Aug 9, 1:00 PM)99% (Aug 7, 3:00 AM)30.04 "Hg (Aug 7, 3:00 AM)
Low53 °F (Aug 20, 6:00 AM)37% (Aug 7, 1:00 PM)29.47 "Hg (Aug 18, 3:00 PM)
Average63 °F76%29.82 "Hg
* Reported Aug 5 12:00 Noon — Aug 20 12:00 Noon, Greifswald, Weather by CustomWeather, © 2014

Note: Actual official high and low records may vary slightly from our data, if they occured in-between our weather recording intervals... More about our weather records

Advertising

Greifswald weather history for previous 24 hours

 ConditionsComfort  
Time TempWeatherWind HumidityBarometerVisibility
12:00 PM
Aug 20
59 °FScattered clouds.7 mph67%29.83 "Hg19 mi
11:00 AM58 °FOvercast.7 mph71%29.82 "Hg19 mi
10:00 AM56 °FOvercast.6 mph74%29.80 "Hg19 mi
9:00 AM55 °FOvercast.6 mph78%29.79 "Hg22 mi
8:00 AM54 °FOvercast.6 mph81%29.77 "Hg25 mi
7:00 AM53 °FOvercast.5 mph81%29.76 "Hg28 mi
6:00 AM53 °FOvercast.6 mph81%29.75 "Hg19 mi
4:00 AM53 °FOvercast.6 mph84%29.74 "Hg16 mi
3:00 AM54 °FPassing clouds.6 mph83%29.73 "Hg19 mi
2:00 AM54 °FOvercast.5 mph84%29.73 "Hg17 mi
1:00 AM54 °FPassing clouds.5 mph84%29.73 "Hg19 mi
12:00 AM53 °FPassing clouds.5 mph84%29.73 "Hg22 mi
10:00 PM
Aug 19
57 °FOvercast.6 mph75%29.73 "Hg25 mi
9:00 PM58 °FOvercast.5 mph69%29.72 "Hg28 mi
8:00 PM62 °FLight rain. Overcast.6 mph64%29.72 "Hg22 mi
7:00 PM63 °FOvercast.7 mph63%29.72 "Hg22 mi
6:00 PM65 °FPassing clouds.6 mph55%29.73 "Hg22 mi
4:00 PM63 °FOvercast.7 mph54%29.75 "Hg22 mi
3:00 PM62 °FOvercast.6 mph54%29.75 "Hg25 mi
2:00 PM63 °FOvercast.8 mph53%29.74 "Hg28 mi
1:00 PM64 °FPartly sunny.7 mph55%29.75 "Hg28 mi
Weather by CustomWeather, © 2014

See weather overviewHow to use our weather pages